TimeMDT,TemperatureF,Dew PointF,Humidity,Sea Level PressureIn,VisibilityMPH,Wind Direction,Wind SpeedMPH,Gust SpeedMPH,PrecipitationIn,Events,Conditions,WindDirDegrees,DateUTC
12:56 AM,46.9,35.1,63,29.99,-9999.0,Calm,Calm,-,N/A,,Unknown,0,2013-08-06 06:56:00
1:56 AM,45.0,34.0,65,29.98,-9999.0,WNW,3.5,-,N/A,,Unknown,300,2013-08-06 07:56:00
2:56 AM,43.0,35.1,74,29.98,-9999.0,NW,3.5,-,N/A,,Unknown,320,2013-08-06 08:56:00
3:56 AM,42.1,35.1,76,29.99,-9999.0,Calm,Calm,-,N/A,,Unknown,0,2013-08-06 09:56:00
4:56 AM,41.0,35.1,79,30.00,-9999.0,Calm,Calm,-,N/A,,Unknown,0,2013-08-06 10:56:00
5:56 AM,39.0,34.0,82,30.05,-9999.0,Calm,Calm,-,N/A,,Unknown,0,2013-08-06 11:56:00
6:56 AM,39.0,34.0,82,30.05,-9999.0,Calm,Calm,-,N/A,,Unknown,0,2013-08-06 12:56:00
7:56 AM,48.0,39.0,71,30.05,-9999.0,Calm,Calm,-,N/A,,Unknown,0,2013-08-06 13:56:00
8:56 AM,55.0,44.1,67,30.05,-9999.0,Calm,Calm,-,N/A,,Unknown,0,2013-08-06 14:56:00
9:56 AM,59.0,45.0,60,30.04,-9999.0,Variable,4.6,-,N/A,,Unknown,0,2013-08-06 15:56:00
10:56 AM,66.9,32.0,27,30.04,-9999.0,West,10.4,18.4,N/A,,Unknown,280,2013-08-06 16:56:00
11:56 AM,68.0,28.0,22,30.05,-9999.0,WNW,10.4,21.9,N/A,,Unknown,300,2013-08-06 17:56:00
12:56 PM,70.0,28.9,22,30.03,-9999.0,Variable,5.8,-,N/A,,Unknown,0,2013-08-06 18:56:00
1:56 PM,71.1,25.0,18,30.04,-9999.0,West,9.2,-,N/A,,Unknown,270,2013-08-06 19:56:00
2:56 PM,73.0,23.0,15,30.04,-9999.0,West,10.4,18.4,N/A,,Unknown,280,2013-08-06 20:56:00
3:56 PM,73.0,26.1,17,30.03,-9999.0,Variable,6.9,19.6,N/A,,Unknown,0,2013-08-06 21:56:00
4:56 PM,73.0,21.0,14,30.04,-9999.0,West,9.2,17.3,N/A,,Unknown,260,2013-08-06 22:56:00
5:56 PM,73.0,23.0,15,30.04,-9999.0,West,15.0,23.0,N/A,,Unknown,280,2013-08-06 23:56:00
6:56 PM,71.1,25.0,18,30.04,-9999.0,Calm,Calm,-,N/A,,Unknown,0,2013-08-07 00:56:00
7:56 PM,68.0,26.1,21,30.02,-9999.0,Variable,4.6,-,N/A,,Unknown,0,2013-08-07 01:56:00
8:56 PM,59.0,33.1,38,30.04,-9999.0,North,3.5,-,N/A,,Unknown,360,2013-08-07 02:56:00
9:56 PM,55.0,32.0,42,30.05,-9999.0,Calm,Calm,-,N/A,,Unknown,0,2013-08-07 03:56:00
10:56 PM,48.9,33.1,54,30.05,-9999.0,Calm,Calm,-,N/A,,Unknown,0,2013-08-07 04:56:00
11:56 PM,46.0,30.9,56,30.06,-9999.0,NW,3.5,-,N/A,,Unknown,320,2013-08-07 05:56:00